World > North America > United States > Michigan

Hourly Baldwin, MI Regional Weather

Feedback E-mail the Weather

Quick WX

Baldwin, MI Weather Maps

°F °C°F °C
Baldwin Weather Map
UTC Time: 7/5/2022, 08:55
Your Time:

Baldwin, MI Regional Weather

Expires:202207050900;;711960
ASUS43 KDTX 050810
RWRMI 
MICHIGAN HOURLY REGIONAL WEATHER ROUNDUP
NATIONAL WEATHER SERVICE DETROIT/PONTIAC MI
400 AM EDT TUE JUL 05 2022

NOTE: "FAIR" INDICATES FEW OR NO CLOUDS BELOW 12,000 FEET WITH NO
SIGNIFICANT WEATHER AND/OR OBSTRUCTION TO VISIBILITY.


MIZ016>042-050900-
NORTHERN LOWER MICHIGAN
  
CITY           SKY/WX    TMP DP  RH WIND       PRES   REMARKS
ALPENA         RAIN      61  61 100 VRB6      29.84F FOG              
BEAVER ISLAND  DRIZZLE   62  62 100 E7        29.83F                  
BELLAIRE       CLOUDY    68  66  96 CALM      29.81S FOG              
CADILLAC       CLOUDY    69  67  95 SW6       29.83F                  
CHARLEVOIX     CLOUDY    66  66  99 E9        29.81F FOG              
FRANKFORT      CLOUDY    64  61  91 W8        29.82R FOG              
GAYLORD        LGT RAIN  66  62  87 NE3       29.83F FOG              
GRAYLING       CLOUDY    68  68 100 SW6       29.81F                  
HARBOR SPRINGS DRIZZLE   64  64 100 E9        29.83F                  
HOUGHTON LAKE  CLOUDY    68  65  90 S12       29.83F                  
MANISTEE       CLOUDY    69  69 100 W3        29.81F FOG              
OSCODA         LGT RAIN  65  65 100 NE5       29.85F                  
PELLSTON       LGT RAIN  63  62  97 E6        29.84F FOG              
ROGERS CITY    HVY RAIN  57  56  94 E5        29.86F                  
TRAVERSE CITY  CLOUDY    69  66  90 W3        29.78F                  
$$

SKY/WX - Weather  TMP - Temperature  DP - Dew Point  RH - Humidity
WIND - Wind Direction/Speed PRES - Barometric Pressure VSB - Visibility
WCI - Wind Chill Index E13G22 Wind - East Wind 13 mph/Gusts of 22 mph

Trending Headlines

Baldwin Radar Loop



Baldwin Quick Facts


National Two Day Weather Forecast


E-mail the Baldwin Weather Forecast

Voice your opinion or tell us about page issues...